Other Public Products
Issued by NWS Grand Forks, ND

Home | Current Version | Previous Version | Graphics & Text | Print | Product List | Glossary On
Versions: 1 2 3 4 5 6 7 8 9 10 11 12 13 14 15 16 17 18 19 20 21 22 23 24 25 26 27 28 29 30 31 32 33 34 35 36 37 38 39 40 41 42 43 44 45 46 47 48 49 50
236
FPUS83 KFGF 062331
OPUFGF
PRAIRIE TO PINES WEATHER ROUNDUP
NATIONAL WEATHER SERVICE EASTERN NORTH DAKOTA/GRAND FORKS ND
500 PM CST TUE DEC 06 2016

 **SATELLITE DATA USED TO AUGMENT SKY COVER AT AUTOMATED STATIONS**
 *****  WEATHER ACROSS EASTERN NORTH DAKOTA  *****

CITY           SKY/WX    TMP DP  RH WIND       PRES   REMARKS
GRAND FORKS    SNOW      22  18  85 NW32G39   29.54R VSB 1/2 WCI   3
GRAND FORKS AF NOT AVBL
GRAND CITY NWS   N/A     19 N/A N/A NW16        N/A  WCI   5
BUXTON           N/A     39  38  99 W29G40      N/A
DEVILS LAKE    SNOW      12  10  92 NW33G43   29.68R VSB 1/2 WCI -10
FARGO          LGT SNOW  19  13  77 W33G47    29.63R WCI  -1
WAHPETON ARPT  CLOUDY    18  14  86 W28G39    29.70R WCI  -1
$$

 *****  WEATHER ACROSS CENTRAL AND WESTERN NORTH DAKOTA  *****

CITY           SKY/WX    TMP DP  RH WIND       PRES   REMARKS
JAMESTOWN      LGT SNOW  12   9  87 NW35G46   29.75R VSB 3/4 WCI -11
BISMARCK       CLOUDY     8   4  83 NW16G33   29.95S WCI -10
MINOT          LGT SNOW   7   2  80 W36G41    29.90R WCI -18
MINOT AFB      NOT AVBL
GARRISON         N/A      6   1  80 NW33G45   29.91R WCI -19
WILLISTON      CLOUDY     5  -3  69 NW22      30.08R WCI -16
DICKINSON      MIX PCPN   1  -5  75 NW29G35   29.98R WCI -24
HETTINGER      CLOUDY     4  -2  76 NW26G37   30.00R HAZE    WCI -19
$$

 *****  OTHER OBSERVATIONS NORTHEAST NORTH DAKOTA  *****

CITY           SKY/WX    TMP DP  RH WIND       PRES   REMARKS
WALHALLA       LGT SNOW  23  23 100 NW30G38   29.58R WCI   5
LANGDON        SNOW      16  16 100 NW39G47   29.58R VSB 1/4 WCI  -7
CAVALIER       FOG       23  19  86 NW30G39   29.55R VSB 3/4 WCI   5
GRAFTON        FOG       23  23 100 NW29G38   29.56R VSB 1   WCI   6
CANDO          LGT SNOW  14  12  92 NW29G35   29.73R WCI  -7
FORT TOTTEN      N/A     14  13  96 NW16      29.95S WCI  -2
ROLLA          HVY SNOW  12  12 100 NW38G49   29.70R VSB<1/4 WCI -11
RUGBY          HVY SNOW   9   7  92 NW33G43   29.79R VSB 1/4 WCI -15
 ***** THE ABOVE OBSERVATIONS ARE NON NWS ARE NOT QUALITY
        CONTROLLED AND MAY MIS-REPORT RAIN FOR SNOW...
$$

 *****  OTHER OBSERVATIONS SOUTHEAST NORTH DAKOTA *****

CITY           SKY/WX    TMP DP  RH WIND       PRES   REMARKS
COOPERSTOWN    SNOW      14  10  85 W37G52    29.66R VSB 1/4 WCI  -9
VALLEY CITY    LGT SNOW  12  12 100 NW35G51   29.72R VSB 3/4 WCI -10
OAKES          NOT AVBL
GWINNER          N/A     18  12  79 W31G39    29.75  WCI  -2
SHEYENNE NWR     N/A     16  10  77 NW25      29.95S WCI  -3
BUFFALO          N/A     14  11  87 N33G48      N/A  WCI  -8
WYNDMERE         N/A     18  14  86 W26         N/A  WCI  -1
 ***** THE ABOVE OBSERVATIONS ARE NON NWS ARE NOT QUALITY
       CONTROLLED AND MAY MIS-REPORT RAIN FOR SNOW...
$$

  *****  WEATHER ACROSS NORTHERN MINNESOTA  *****

CITY           SKY/WX    TMP DP  RH WIND       PRES   REMARKS
FLAG ISLAND    LGT SNOW  23  19  86 W7        29.40S WCI  15
WARROAD        FLURRIES  21  18  86 CALM      29.42R
ROSEAU         LGT SNOW  23  18  80 CALM      29.43R
HALLOCK        SNOW      25  21  86 NW33G41   29.47R VSB 1/2 WCI   7
THF RVR FALLS  LGT SNOW  21  19  93 W14       29.47R FOG     WCI   8
HALSTAD          N/A     20  18  88 NW32        N/A  WCI   1
FOSSTON        FLURRIES  19  18  93 W15       29.46R WCI   5
BAUDETTE       LGT SNOW  21  18  88 NE3       29.39R FOG
WASKISH        FLURRIES  21  19  93 N7        29.37R WCI  13
CROOKSTON      LGT SNOW  25  23  93 NW24G31   29.52R VSB 3/4 WCI   9
$$
  *****  WEATHER ACROSS CENTRAL AND WEST MINNESOTA  *****

CITY           SKY/WX    TMP DP  RH WIND       PRES   REMARKS
BEMIDJI        LGT SNOW  22  19  89 W20G25    29.39R WCI   7
PARK RAPIDS    SNOW      21  16  81 W28       29.43R VSB 1/2 WCI   3
WADENA         LGT SNOW  18  14  86 W23       29.52R WCI   0
DETROIT LAKES  LGT SNOW  19  18  93 W25G36    29.53R WCI   2
MOORHEAD       MIX PCPN  18  12  79 W29G40    29.62R WCI  -2
FERGUS FALLS   LGT SNOW  16  14  93 W30G41    29.69R VSB 3/4 WCI  -4
ELBOW LAKE     LGT SNOW  16  14  92 NW28G38   29.68R VSB 3/4 WCI  -4
MORRIS MN      LGT SNOW  18  12  79 W31G38    29.72R WCI  -2
STAPLES        LGT SNOW  18  14  86 W22G29    29.54R WCI   0
WHEATON        LGT SNOW  18  14  86 W28G37    29.75R WCI  -1
$$
  *****  WEATHER ELSEWHERE ACROSS MINNESOTA  *****

CITY           SKY/WX    TMP DP  RH WIND       PRES   REMARKS
DULUTH         LGT SNOW  21  17  84 SW18G26   29.46S FOG     WCI   6
INTRNTL FALLS  LGT SNOW  20  17  88 SE6       29.39R FOG     WCI  12
ELY            LGT SNOW  18  14  86 SE7       29.43S WCI   8
CLOQUET        LGT SNOW  21  16  79 SW14G23   29.48S WCI   8
BRAINERD       LGT SNOW  20  15  81 SW25G35   29.52R WCI   2
HIBBING        LGT SNOW  19  17  92 VRB7      29.40S VSB 1   WCI  10
ALEXANDRIA     LGT SNOW  16  13  88 W28G36    29.64R VSB 1   WCI  -4
SAINT CLOUD    LGT SNOW  20  14  77 W22G33    29.66R WCI   3
MINNEAPOLIS    FLURRIES  23  12  62 W22G29    29.74R WCI   8
$$

  *****  WEATHER ACROSS SOUTH DAKOTA  *****

CITY           SKY/WX    TMP DP  RH WIND       PRES   REMARKS
SIOUX FALLS    PTCLDY    18  10  71 W23G32    29.92R WCI   0
BROOKINGS      PTCLDY    13   6  74 W28G36    29.85R WCI  -8
WATERTOWN      LGT SNOW  12   8  84 W22G36    29.83R FOG     WCI  -7
HURON          PTCLDY    14   6  70 NW25G32   29.97R WCI  -5
SISSETON         N/A     15   8  73 NW30G43   29.75R WCI  -5
ABERDEEN       CLOUDY    12   3  67 NW28G39   29.88R WCI  -9
MITCHELL       CLEAR     18   8  65 NW26G37   29.99R WCI  -1
PIERRE         CLOUDY    13   4  67 NW33G40   30.01S WCI  -9
MOBRIDGE       MOCLDY    11   2  67 NW30G39   29.94R WCI -11
RAPID CITY     CLEAR     13   1  59 N16G23    30.00R WCI  -3
$$

  *****  SOME WEATHER IN NEARBY STATES *****

CITY           SKY/WX    TMP DP  RH WIND       PRES   REMARKS
GLASGOW MT     CLEAR      2  -6  69 NW24      30.16R WCI -21
GREAT FALLS MT CLOUDY     1  -7  68 N8        30.18R WCI -13
CHEYENNE WY    CLOUDY    19  -2  39 S16       29.80S WCI   4
SCOTTSBLUFF NE CLOUDY    23   1  38 N8        29.94R WCI  14
OMAHA NE       CLEAR     32  10  40 W14       30.03R WCI  22
DES MOINES IA  CLEAR     31  14  49 W12       29.97R WCI  22
DAVENPORT IA   CLEAR     30  22  72 W18       29.93R WCI  18
CHICAGO IL     PTCLDY    33  25  72 W17G24    29.83R WCI  22
EAU CLAIRE WI  CLOUDY    22  16  78 SW15G22   29.72S WCI   9
LA CROSSE WI   CLOUDY    27  17  66 SW14      29.82R WCI  16
$$

  *****  SOME NATIONAL WEATHER *****

CITY           SKY/WX    TMP DP  RH WIND       PRES   REMARKS
LA GUARDIA NY  CLOUDY    47  32  56 E12       29.96F
RALEIGH NC     CLOUDY    44  42  93 VRB6      29.74R
ATLANTA GA     CLOUDY    59  56  89 W13       29.84R
NEW ORLEANS LA MOCLDY    57  54  89 N5        29.98R
OKLAHOMA CITY  CLOUDY    42  21  43 N12       30.07R
ALBUQUERQUE NM CLOUDY    45  17  32 N12       29.79F
SALT LAKE CITY CLOUDY    28  19  69 SE7       29.82R WCI  21
LOS ANGELES CA CLOUDY    61  51  70 W12       29.96R
BOISE ID       CLOUDY    26  20  77 W5        29.97R WCI  20
SEATTLE WA     PTCLDY    38  28  67 N14       30.21R
$$

*** WEATHER ACROSS MANITOBA...SASKATCHEWAN AND ONTARIO ***
                ***ONTARIO***

CITY           SKY/WX    TMP DP  RH WIND       PRES   REMARKS
GERALDTON      CLOUDY    34  32  93 SE10G20   29.55F
THUNDER BAY    MOCLDY    30  23  74 SW16G24   29.50R WCI  19
SIOUX LOOKOUT  FLURRIES  27  23  86 SW9       29.39R WCI  17
TORONTO        CLOUDY    37  34  87 SE13G28   29.80F
BIG TROUT LK   FLURRIES  19  18  93 E12G20    29.77F WCI   7
PICKLE LAKE    LGT SNOW  28  27  93 E15G26    29.44F DRFTSNOWWCI  17
DRYDEN         FLURRIES  23  19  86 SW7       29.38S WCI  15
KENORA         FLURRIES  23  19  86 S3        29.39R
$$
                *** MANITOBA***

CITY           SKY/WX    TMP DP  RH WIND       PRES   REMARKS
BRANDON        FLURRIES  14   9  79 NW29G38   29.74S WCI  -7
DAUPHIN        LGT SNOW  19  16  86 NW23G29   29.82R WCI   2
ISLAND LAKE    FLURRIES  23  21  93 NE12G25   29.73S WCI  12
PILOT MOUND      N/A     14  14 100 NW31G38     N/A  WCI  -7
THE PAS        FLURRIES  16  10  79 NW17G24   29.98S WCI   0
THOMPSON       FLURRIES  19  16  86 N12       29.96S WCI   7
WINNIPEG       LGT SNOW  27  25  93 N29       29.49R BLWGSNOWWCI  11
LYNN LAKE      FLURRIES  12  10  92 N9        30.05R WCI   0
CHURCHILL      LGT SNOW  27  27 100 NE14G30   30.00S DRFTSNOWWCI  15
GILLAM         LGT SNOW  19  18  93 N12       29.96R FOG     WCI   7
$$
                ***SASKATCHEWAN***

CITY           SKY/WX    TMP DP  RH WIND       PRES   REMARKS
ESTEVAN        SNOW       3  -2  78 NW28G33   30.01R VSB 3/8 WCI -21
KINDERSLEY     PTCLDY    -2  -9  71 NW13      30.21R WCI -21
LLOYDMINSTER   CLOUDY    -2  -8  78 NW15G22   30.24R WCI -22
PRINCE ALBERT  PTCLDY     5  -2  72 NW10      30.13R WCI -10
REGINA         CLOUDY     3  -2  78 NW25G31   30.08R WCI -20
YORKTON        FLURRIES   9   3  78 NW21G30   29.96R WCC1F1C2F2C3F3C4F4C5F5C6F6C7F7C8F8C9F9CaFaCbFbCcFcCdFdCe!



USA.gov is the U.S. government's official web portal to all federal, state and local government web resources and services.